Probability
0 0 0 0 0 0 0 0 0 0 0 0 0 0 0 0 0 0 0 0 0 0 0 0 0 0 0 0 0 0 0 0 0 0 1 2 3 3 3 3 1 0 0 0
0 0 0 0 0 0 0 0 0 0 0 0 0 0 0 0 0 0 0 0 0 0 0 0 0 0 0 0 0 0 0 0 0 1 2 3 3 3 3 3 2 1 0 0
0 0 0 0 0 0 0 0 0 0 0 0 0 0 0 0 0 0 0 0 0 0 0 0 1 1 0 0 0 0 0 0 0 1 2 3 3 3 3 3 3 2 1 1
0 0 0 0 0 0 0 0 0 0 0 0 0 0 0 0 0 0 0 0 0 0 0 1 2 2 1 0 0 0 0 0 0 0 1 2 3 3 3 3 3 3 3 2
0 0 0 0 0 0 0 0 0 0 0 0 0 0 0 0 0 0 0 0 0 0 0 1 2 2 1 0 0 0 0 0 0 0 0 1 2 3 3 3 3 3 3 3
0 0 0 0 0 0 0 0 0 0 0 0 0 0 0 0 0 0 0 0 0 0 0 0 1 1 1 0 0 0 0 0 0 0 0 0 2 3 4 3 3 3 3 3
0 0 0 0 0 0 0 0 0 0 0 0 0 0 0 0 0 0 0 0 0 0 0 0 0 0 0 0 0 0 0 0 0 0 0 1 2 4 4 4 3 3 3 3
0 0 0 0 0 0 0 0 0 0 0 0 0 0 0 0 0 0 0 0 0 0 0 0 0 0 0 0 0 0 0 0 0 0 0 1 2 4 4 3 3 3 3 3
0 0 0 0 0 0 0 0 0 0 0 0 0 0 0 0 0 0 0 0 0 0 0 0 0 0 0 0 0 0 0 1 1 1 1 1 1 2 3 3 3 3 3 3
0 0 0 0 0 0 0 0 0 0 0 0 0 0 0 0 0 0 0 0 0 0 0 0 0 0 0 0 0 0 0 1 2 2 2 1 1 1 2 1 1 2 3 3
0 0 0 0 0 0 0 0 0 0 0 0 0 0 0 0 0 0 0 0 0 0 0 0 0 0 0 0 0 0 0 0 1 1 1 1 0 1 1 1 0 1 2 1
0 0 0 0 0 0 0 0 0 0 0 0 0 0 0 0 0 0 0 0 0 0 0 0 0 0 0 0 0 0 0 0 0 0 0 0 0 0 0 0 0 0 0 0
0 0 0 0 0 0 0 0 0 0 0 0 0 0 0 0 0 0 0 0 0 0 0 0 0 0 0 0 0 0 0 0 0 0 0 0 0 0 0 0 0 0 0 0
0 0 0 0 0 0 0 0 0 0 0 0 0 0 0 0 0 0 0 0 0 0 0 0 0 0 0 0 0 0 0 0 0 0 0 0 0 0 0 0 0 0 0 0
0 0 0 0 0 0 0 0 0 0 0 0 0 0 0 0 0 0 0 0 0 0 0 0 0 0 0 0 0 0 0 0 0 0 0 0 0 0 0 0 0 0 0 0
0 0 0 0 0 0 0 0 0 0 0 0 0 0 0 0 0 0 0 0 0 0 0 0 0 0 0 0 0 0 0 0 0 0 0 0 0 0 0 0 0 0 0 0
0 0 0 0 0 0 0 0 0 0 0 0 0 0 0 0 0 0 0 0 0 0 0 0 0 0 0 0 0 0 0 0 0 0 0 0 0 0 0 0 0 0 0 0
0 0 0 0 0 0 0 0 0 0 0 0 0 0 0 0 0 0 0 0 0 0 0 0 0 0 0 0 0 0 0 0 0 0 0 0 0 0 0 0 0 0 0 0
0 0 0 0 0 0 0 0 0 0 0 0 0 0 0 0 0 0 0 0 0 0 0 0 0 0 0 0 0 0 0 0 0 0 0 0 0 0 0 0 0 0 0 0
0 0 0 0 0 0 0 0 0 0 0 0 0 0 0 0 0 0 0 0 0 0 0 0 0 0 0 0 0 0 0 0 0 0 0 0 0 0 0 0 0 0 0 0
0 0 0 0 0 0 0 0 0 0 0 0 0 0 0 0 0 0 0 0 0 0 0 0 0 0 0 0 0 0 0 0 0 0 0 0 0 0 0 0 0 0 0 0
0 0 0 0 0 0 0 0 0 0 0 0 0 0 0 0 0 0 0 0 0 0 0 0 0 0 0 0 0 0 0 0 0 0 0 0 0 0 0 0 0 0 0 0
0 0 0 0 0 0 0 0 0 0 0 0 0 0 0 0 0 0 0 0 0 0 0 0 0 0 0 0 0 0 0 0 0 0 0 0 0 0 0 0 0 0 0 0
0 0 0 0 0 0 0 0 0 0 0 0 0 0 0 0 0 0 0 0 0 0 0 0 0 0 0 0 0 0 0 0 0 0 0 0 0 0 0 0 0 0 0 0
0 0 0 0 0 0 0 0 0 0 0 0 0 0 0 0 0 0 0 0 0 0 0 0 0 0 0 0 0 0 0 0 0 0 0 0 0 0 0 0 0 0 0 0
0 0 0 0 0 0 0 0 0 0 0 0 0 0 0 0 0 0 0 0 0 0 0 0 0 0 0 0 0 0 0 0 0 0 0 0 0 0 0 0 0 0 0 0
0 0 0 0 0 0 0 0 0 0 0 0 0 0 0 0 0 0 0 0 0 0 0 0 0 0 0 0 0 0 0 0 0 0 0 0 0 0 0 0 0 0 0 0
Wind_Speed
2 1 2 4 5 7 8 7 6 4 4 4 3 3 2 1 3 5 6 7 8 8 8 8 8 8 8 8 8 9 9 9 8 7 7 6 6 6 5 4 4 4 4 4
3 3 4 4 6 7 8 8 8 7 7 4 2 2 2 2 4 5 6 6 7 8 8 9 9 9 9 8 8 9 9 9 7 7 7 7 6 6 5 5 5 4 5 5
3 2 4 5 4 6 7 7 7 8 5 2 2 2 2 2 3 5 5 5 6 7 8 8 8 9 9 8 8 8 8 8 7 7 7 7 7 6 6 6 5 5 6 5
4 4 6 1 1 3 5 6 7 6 5 4 2 1 1 2 3 4 4 4 5 5 6 7 7 7 7 8 8 8 8 8 7 8 8 7 7 6 6 6 5 5 5 5
4 5 5 3 3 4 5 4 3 5 4 2 2 2 2 1 1 2 2 3 3 4 5 6 7 7 8 8 8 7 7 7 8 8 7 7 7 7 6 5 5 6 5 5
6 6 5 1 2 2 4 4 1 3 3 3 4 3 2 3 2 2 2 2 2 3 4 5 6 7 7 7 7 7 7 6 6 7 7 7 7 6 5 5 5 5 5 5
8 8 5 0 3 5 6 1 1 2 3 4 3 1 3 3 3 3 3 3 3 4 4 4 5 7 7 6 6 5 5 5 5 6 6 6 5 5 5 5 4 5 5 4
7 8 5 4 6 5 3 2 1 2 3 3 2 1 2 3 3 3 3 4 4 4 4 4 5 6 6 5 4 4 5 5 5 5 5 4 5 4 5 5 5 5 5 4
6 4 2 3 4 4 4 3 2 1 2 3 3 3 2 3 3 3 3 3 3 4 4 4 4 4 5 4 4 5 5 5 4 5 4 4 5 5 4 4 4 4 3 3
6 6 4 4 5 4 4 5 3 3 2 4 4 4 3 3 3 3 3 3 4 4 4 4 3 3 3 3 4 5 5 4 4 4 4 4 3 3 3 3 3 3 3 3
8 6 5 5 5 4 3 3 2 2 3 4 5 5 4 4 3 3 3 3 3 3 3 3 3 3 2 3 4 4 4 4 4 3 3 3 3 2 3 2 2 3 2 3
7 5 5 4 2 2 3 3 3 2 3 4 5 5 4 3 3 3 3 4 4 4 3 3 3 3 3 3 3 4 4 3 3 3 3 3 3 2 2 0 1 1 2 3
5 3 4 3 3 3 3 3 2 3 3 3 4 4 4 4 3 3 4 4 4 4 3 3 3 3 3 3 3 4 4 3 3 2 3 3 3 3 2 2 2 1 2 2
4 3 4 3 2 2 2 1 1 2 2 3 3 4 4 4 4 4 4 3 4 4 4 4 4 3 3 3 4 3 3 3 2 2 2 2 2 2 2 2 2 2 2 2
5 6 5 3 2 2 1 2 2 2 3 3 4 4 5 5 5 4 3 3 4 4 4 4 4 3 3 4 4 3 3 2 2 2 2 2 2 2 2 2 2 2 1 1
5 4 4 4 4 3 3 3 3 3 3 3 3 4 4 5 5 4 4 4 4 4 3 3 3 3 3 3 4 3 2 2 1 2 2 2 2 2 2 2 2 2 2 1
6 6 6 5 5 4 4 3 3 3 3 4 4 4 5 6 6 5 4 4 3 3 2 3 3 3 3 3 3 2 2 3 2 2 2 1 1 2 2 2 2 2 2 1
7 6 6 6 5 4 4 3 3 3 4 4 4 5 6 6 5 5 5 4 4 3 2 2 2 3 3 3 2 2 2 2 2 2 2 1 1 2 2 3 3 3 2 1
5 5 5 5 4 4 4 4 4 4 4 5 5 5 5 5 5 5 5 4 4 3 2 2 2 2 3 2 2 2 2 2 2 1 1 1 2 2 2 3 3 3 3 3
3 4 4 4 4 4 4 4 3 4 4 5 6 6 6 5 5 5 5 4 2 1 2 2 2 2 2 2 1 2 2 2 1 1 1 1 1 2 2 3 3 3 3 3
3 3 4 4 3 3 3 4 4 4 4 5 6 6 6 6 5 5 4 3 2 2 2 2 1 1 1 2 2 1 1 1 1 1 1 1 2 2 2 3 3 3 4 4
2 3 3 4 4 4 3 3 4 5 5 5 5 6 6 6 5 4 3 2 2 2 1 1 1 2 2 1 1 1 1 1 1 1 1 2 2 2 3 3 4 4 4 4
2 2 3 3 4 4 4 4 4 4 5 5 5 5 5 4 3 3 2 2 2 2 1 1 3 3 2 1 1 1 1 1 1 1 1 2 2 3 3 4 4 4 4 4
2 2 2 3 3 4 4 4 4 4 4 4 4 4 4 3 2 2 2 3 3 2 1 3 4 3 1 1 1 1 1 1 1 1 2 2 2 3 3 4 4 4 4 5
3 3 3 4 4 3 4 4 4 4 4 3 4 3 2 2 2 2 3 3 4 3 2 3 3 2 1 0 0 1 1 1 1 2 2 2 2 3 3 4 4 4 4 5
2 2 2 2 2 3 3 4 3 3 3 3 3 3 2 2 3 3 3 3 3 2 1 1 1 1 0 0 0 1 1 1 2 2 2 2 3 3 3 4 5 5 5 5
2 2 2 2 2 2 3 3 3 3 3 4 3 2 2 2 3 3 3 2 2 1 1 1 1 0 0 0 1 1 1 2 2 2 2 2 3 3 4 5 4 4 4 5
Wind_Direction
278 287 233 236 218 209 225 252 268 276 276 286 300 302 300 236 171 170 172 175 181 182 181 182 184 186 185 185 184 184 185 192 195 195 192 192 187 191 191 194 206 207 206 207
231 225 225 241 238 226 231 246 255 266 274 288 303 287 253 193 176 179 178 180 181 185 185 187 187 188 185 185 185 187 192 195 191 193 190 193 193 193 190 193 205 203 210 211
247 217 225 242 240 228 226 230 237 250 257 255 277 272 253 206 185 189 189 188 188 189 190 191 190 187 185 186 183 188 193 192 187 190 193 198 194 193 195 198 201 207 213 215
255 233 246 13 54 244 246 256 250 257 266 262 270 292 284 253 218 205 199 195 194 195 192 191 187 182 179 176 181 187 190 190 188 190 193 195 196 198 205 205 199 207 213 216
247 251 257 241 215 219 235 248 245 241 236 221 171 173 155 133 199 208 198 197 194 195 187 184 181 177 174 175 179 185 189 192 189 191 191 192 195 200 204 205 204 208 212 215
233 250 257 239 142 196 246 241 212 223 211 196 195 218 127 108 130 146 149 157 160 163 168 169 168 169 172 174 179 187 191 192 188 189 190 193 197 198 197 203 210 212 214 221
237 247 255 79 143 183 226 305 119 225 215 198 211 349 82 108 114 111 114 124 137 143 144 151 156 163 173 175 184 187 184 184 182 183 189 193 194 192 193 197 206 213 215 223
228 238 239 135 168 213 306 359 268 239 223 209 198 108 127 129 122 120 117 119 130 133 127 131 150 163 169 175 178 169 169 174 178 177 176 181 185 190 193 194 203 212 220 222
237 255 350 181 228 278 299 290 285 253 216 196 188 182 170 156 143 133 130 126 132 133 127 127 145 165 168 165 161 159 162 169 173 170 171 177 182 185 188 194 209 216 219 228
242 249 257 253 254 256 262 268 275 261 226 200 194 186 178 168 152 144 141 137 140 142 136 129 138 157 168 151 157 161 162 165 167 167 165 169 178 188 191 195 210 220 225 235
247 256 256 241 240 245 251 258 255 249 227 210 194 186 177 165 156 150 147 148 150 149 142 139 139 144 149 150 161 167 163 161 164 161 160 165 166 185 205 197 230 239 239 246
249 252 254 251 247 249 249 249 242 228 215 202 190 180 174 165 155 154 153 150 148 144 147 147 144 139 140 150 163 168 164 159 161 160 163 169 168 160 78 5 112 244 304 296
279 304 284 278 268 253 259 263 253 233 209 193 183 174 167 162 158 152 151 152 152 151 152 149 144 144 142 149 160 167 164 159 159 167 168 177 185 197 189 169 156 183 237 276
247 245 244 238 248 254 256 245 214 192 181 174 168 162 158 156 155 156 156 151 150 149 149 148 144 143 142 150 158 164 158 145 152 162 178 187 194 207 222 226 215 204 190 211
239 249 247 240 230 218 197 176 167 165 157 152 151 156 159 159 155 147 137 139 146 145 141 142 141 136 140 153 159 161 156 154 157 161 177 186 196 210 225 240 245 246 239 181
241 231 220 217 219 214 201 193 184 175 166 159 158 158 154 147 139 132 132 144 151 145 142 141 139 136 145 153 153 154 142 121 153 168 173 185 202 221 233 242 250 257 265 289
222 223 222 220 218 215 210 206 199 185 172 167 161 151 144 139 134 131 130 133 133 130 134 136 136 135 146 154 154 153 148 143 165 187 190 206 224 239 247 251 257 265 276 309
235 234 229 222 215 209 206 198 189 181 171 156 148 151 151 150 147 140 133 129 126 121 110 112 129 144 148 151 151 152 158 163 179 197 209 221 244 249 257 260 260 267 280 264
227 227 225 219 211 201 194 191 185 171 155 150 154 155 152 147 141 138 138 137 134 124 102 96 110 151 143 132 143 164 172 177 184 196 210 207 241 256 267 271 267 271 279 284
214 213 208 204 197 190 185 177 170 162 156 156 154 149 146 143 143 145 144 138 126 115 126 132 161 155 151 142 167 171 172 182 196 205 224 243 259 270 271 278 280 280 282 282
187 190 187 183 179 179 176 170 162 157 156 159 158 153 146 143 147 150 147 135 112 111 123 137 151 137 135 131 177 178 179 190 212 232 240 253 262 270 279 287 289 286 286 289
175 175 176 172 168 164 163 162 157 157 157 157 154 148 145 146 146 146 139 129 127 136 161 158 141 101 107 149 175 179 192 208 234 252 264 271 275 281 291 299 297 297 297 296
167 169 169 170 167 156 152 154 156 158 160 159 158 157 154 148 151 151 142 124 136 140 165 123 105 117 148 181 162 172 197 220 239 254 267 278 285 290 294 297 298 300 301 300
159 160 157 157 158 157 156 149 148 149 150 150 151 153 151 144 137 121 114 121 125 140 130 109 116 123 169 170 163 193 216 236 256 273 283 286 288 290 292 293 293 296 296 298
159 157 159 164 167 165 158 151 148 146 145 142 141 141 142 138 137 132 129 131 129 139 125 122 130 153 182 131 218 277 277 289 293 287 279 282 286 288 289 291 292 293 293 294
159 161 171 183 173 162 161 161 161 160 157 149 142 138 128 121 128 134 134 139 139 138 142 143 149 172 169 100 297 287 284 271 263 267 275 281 284 285 288 291 293 292 293 295
160 161 166 168 161 165 166 166 164 163 163 160 150 143 139 140 143 144 144 148 151 155 157 164 164 162 173 254 265 274 286 293 294 293 291 290 289 288 290 292 293 294 297 297